Overview Statistics Trail Chart Weather Telemetry Raw packets
 

This is the latest recevied weather packets stored in our database for station/object DO3MLA-13. If no packets are shown the sender has not sent any weather packets the latest 10 day(s).

<< 22 23 24 25 26 27 28 >>
Time Temp. Humidity Pressure Rain* Wind** Luminosity Snow
1788330438 12.78° C 100% 1004 hPa 0 mm - 44 W/m² -
1788329832 12.78° C 100% 1004 hPa 0 mm - 30 W/m² -
1788329228 12.22° C 100% 1004 hPa 0 mm - 37 W/m² -
1788328623 11.67° C 100% 1004 hPa 0 mm - 35 W/m² -
1788328019 11.67° C 100% 1003 hPa 0 mm - 18 W/m² -
1788327414 11.67° C 100% 1003 hPa 0 mm - 14 W/m² -
1788326809 11.67° C 100% 1003 hPa 0 mm - 13 W/m² -
1788326205 11.67° C 100% 1003 hPa 0 mm - 9 W/m² -
1788325600 11.11° C 100% 1003 hPa 0 mm - 4 W/m² -
1788324995 11.11° C 100% 1003 hPa 0 mm - 3 W/m² -
1788324391 11.11° C 100% 1003 hPa 0 mm - 1 W/m² -
1788323786 10.56° C 100% 1003 hPa 0 mm - 0 W/m² -
1788323181 10.56° C 100% 1003 hPa 0 mm - 0 W/m² -
1788322577 10.56° C 100% 1003 hPa 0 mm - 0 W/m² -
1788321972 10.56° C 100% 1003 hPa 0 mm - 0 W/m² -
1788321368 10.56° C 100% 1003 hPa 0 mm - 0 W/m² -
1788320763 10.56° C 100% 1003 hPa 0 mm - 0 W/m² -
1788320158 11.11° C 100% 1003 hPa 0 mm - 0 W/m² -
1788319554 11.11° C 100% 1003 hPa 0 mm - 0 W/m² -
1788318949 11.11° C 100% 1003 hPa 0 mm - 0 W/m² -
1788318344 11.11° C 100% 1003 hPa 0 mm - 0 W/m² -
1788317740 11.11° C 100% 1003 hPa 0 mm - 0 W/m² -
1788317135 11.11° C 100% 1003 hPa 0 mm - 0 W/m² -
1788316531 11.11° C 100% 1003 hPa 0 mm - 0 W/m² -
1788315926 11.11° C 100% 1003 hPa 0 mm - 0 W/m² -

* Rain latest hour (hover to see other rain measurements)
** Current wind speed in m/s (hover to see current wind gust speed)